Location: Audinghen
(50.8518°N, 1.6129°E)
Time: 08:13:30
(UTC+00:00)

Timation 2 Rocket - Pass Details

Date: 07 August 2020
Orbit: 907 x 1075 km, 70.0° (Epoch: 26 September)

Event Time Altitude Azimuth Distance (km) Brightness Sun altitude
Exits shadow 01:14:32 39° 188° (S) 1,391 4.3 -20.8°
Maximum altitude 01:16:55 70° 117° (ESE) 995 4.0 -20.7°
Drops below altitude 10° 01:22:55 10° 35° (NE) 2,618 7.4 -20.4°
Sets 01:25:24 0° 33° (NNE) 3,554 8.4 -20.2°
